Location: Unspecified
(47.4992°N, 121.7766°W)
Time: 18:05:07
(UTC-08:00)

Cosmos 2058 - Pass Details

Date: 01 February 2021
Orbit: 561 x 584 km, 82.5° (Epoch: 05 March)

Event Time Altitude Azimuth Distance (km) Brightness Sun altitude
Rises 19:51:07 0° 209° (SSW) 2,785 6.7 -27.5°
Reaches altitude 10° 19:53:27 10° 219° (SW) 1,887 5.9 -27.8°
Maximum altitude 19:57:17 35° 286° (WNW) 936 4.4 -28.5°
Enters shadow 19:58:50 26° 328° (NNW) 1,146 4.7 -28.7°
